SITRO-AIS-15

operational
NORAD ID: 61738 Int'l Des: 2024-199 Owner: SITRO Country: RU
LEOCIRCULARRETROGRADESSO

Über SITRO-AIS-15

Beschreibung wird geladen...

Live-Position

3D-Globus wird geladen...

Nächste Überflüge

Höhenverlauf

Altitude vs Time

uPlot chart will show altitude changes over time

Zweizeiliger Elementsatz

1 61738U 24199D 26063.15583181 .00004542 00000-0 39892-3 0 9998
2 61738 97.3310 269.0511 0007490 65.1648 295.0353 14.97016814116101
Epoch: 4. März 2026 • Age: 18 hours

Aktueller Status

Höhe 601.9 km
Geschwindigkeit 7.55 km/s
Subsatellitenpunkt -53.20°S, 13.05°E
Startdatum 4. Nov. 2024
Alter 1.3 years
Typ other

Technische Details

Klassifizierung Payload
Masse 3.00 kg
Trockenmasse 3.00 kg
Gesamtmasse 3.00 kg
Länge 0.30 m
Durchmesser 0.10 m
Spannweite 0.30 m
Form Box
Hersteller SPUT
Bus-Typ Cubesat 3U
Phasenstatus In Orbit
Besitzer/Staat SITRO/RU

Große Konstellationen

Loading constellations...